Date String (YYYY-MM-DD hh:mm:ss) UTC,Instrument flags,Ambient pressure (hPa),Sample flow (lpm),Bypass flow (lpm),Sample temperature (°C),Ambient temperature (°C),ASC tube jacket temperature (°C),LED temperature (°C),Box temperature (°C),Sample RH (%),Span deviation,Mass concentration (μg/m³),Mass concentration (μg/m³),Mass concentration (μg/m³)
DateTimeUTC,F1_M11,P_M11,Q1_M11,Q2_M11,T1_M11,T2_M11,T3_M11,T4_M11,T5_M11,U1_M11,ZSPAN_M11,X2_M11,X0_M11,X1_M11
2022-06-25 23:00:00,,0834.0,5.00,0.00,29.6,28.7,00.0,38.4,31.6,24.0,0000.0,0004.33,0008.41,0003.74
2022-06-25 23:01:00,,0834.1,5.00,0.00,29.7,28.8,00.0,38.4,31.7,23.9,0000.0,0004.35,0009.21,0003.73
2022-06-25 23:02:00,,0834.0,4.99,0.00,29.7,28.8,00.0,38.4,31.7,23.8,0000.0,0004.31,0009.40,0003.73
2022-06-25 23:03:00,,0834.1,5.00,0.00,29.7,28.9,00.0,38.5,31.8,23.7,0000.0,0004.33,0009.64,0003.74
2022-06-25 23:04:00,,0834.1,5.00,0.00,29.8,29.0,00.0,38.5,31.7,23.6,0000.0,0004.36,0010.29,0003.76
2022-06-25 23:05:00,,0834.1,5.00,0.00,29.8,29.0,00.0,38.5,31.8,23.5,0000.0,0004.41,0011.43,0003.79
2022-06-25 23:06:00,,0834.1,5.00,0.00,29.8,29.1,00.0,38.5,31.9,23.4,0000.0,0004.45,0011.75,0003.81
2022-06-25 23:07:00,,0834.1,4.99,0.00,29.8,28.8,00.0,38.5,31.8,23.4,0000.0,0004.46,0011.90,0003.82
2022-06-25 23:08:00,,0834.0,5.01,0.00,29.8,27.9,00.0,38.4,31.5,23.4,0000.0,0004.50,0011.79,0003.84
2022-06-25 23:09:00,,0834.1,5.01,0.00,29.7,27.3,00.0,38.4,31.4,23.7,0000.0,0004.52,0011.85,0003.86
2022-06-25 23:10:00,,0834.1,5.00,0.00,29.6,27.2,00.0,38.4,31.3,24.2,0000.0,0004.54,0013.00,0003.87
2022-06-25 23:11:00,,0834.1,5.01,0.00,29.5,27.3,00.0,38.4,31.3,24.0,0000.0,0004.58,0013.24,0003.89
2022-06-25 23:12:00,,0834.1,4.99,0.00,29.5,27.4,00.0,38.3,31.3,24.1,0000.0,0004.60,0012.60,0003.92
2022-06-25 23:13:00,,0834.2,4.98,0.00,29.5,27.6,00.0,38.3,31.3,24.0,0000.0,0004.63,0013.14,0003.94
2022-06-25 23:14:00,,0834.2,5.01,0.00,29.5,27.8,00.0,38.3,31.3,24.0,0000.0,0004.63,0012.83,0003.96
2022-06-25 23:15:00,,0834.2,4.99,0.00,29.5,28.0,00.0,38.3,31.4,24.0,0000.0,0004.67,0012.53,0003.98
2022-06-25 23:16:00,,0834.1,5.00,0.00,29.5,28.1,00.0,38.3,31.4,23.9,0000.0,0004.69,0011.89,0004.00
2022-06-25 23:17:00,,0834.1,5.00,0.00,29.5,28.3,00.0,38.3,31.5,23.9,0000.0,0004.73,0011.59,0004.02
2022-06-25 23:18:00,,0834.1,5.01,0.00,29.6,28.4,00.0,38.4,31.5,24.0,0000.0,0004.71,0011.37,0004.02
2022-06-25 23:19:00,,0834.1,5.00,0.00,29.6,28.5,00.0,38.4,31.6,24.2,0000.0,0004.66,0011.89,0004.02
2022-06-25 23:20:00,,0834.2,5.00,0.00,29.6,28.6,00.0,38.4,31.6,24.0,0000.0,0004.62,0012.94,0004.01
2022-06-25 23:21:00,,0834.3,5.01,0.00,29.7,28.7,00.0,38.4,31.7,23.9,0000.0,0004.64,0012.24,0004.01
2022-06-25 23:22:00,,0834.3,5.00,0.00,29.7,28.8,00.0,38.4,31.7,23.8,0000.0,0004.64,0012.07,0004.01
2022-06-25 23:23:00,,0834.3,4.99,0.00,29.7,28.9,00.0,38.4,31.7,24.1,0000.0,0004.60,0012.09,0003.98
2022-06-25 23:24:00,,0834.3,5.00,0.00,29.8,29.0,00.0,38.5,31.7,23.7,0000.0,0004.63,0012.21,0003.98
2022-06-25 23:25:00,,0834.3,5.00,0.00,29.8,29.0,00.0,38.5,31.8,23.7,0000.0,0004.63,0012.49,0003.98
2022-06-25 23:26:00,,0834.3,5.01,0.00,29.8,29.1,00.0,38.5,31.9,23.5,0000.0,0004.62,0012.77,0003.98
2022-06-25 23:27:00,,0834.3,4.99,0.00,29.9,29.1,00.0,38.6,31.9,23.5,0000.0,0004.61,0012.63,0003.97
2022-06-25 23:28:00,,0834.3,5.00,0.00,29.9,28.6,00.0,38.5,31.8,23.4,0000.0,0004.60,0012.72,0003.97
2022-06-25 23:29:00,,0834.3,5.00,0.00,29.8,27.7,00.0,38.5,31.5,23.5,0000.0,0004.63,0013.09,0004.00
2022-06-25 23:30:00,,0834.3,5.00,0.00,29.7,27.3,00.0,38.4,31.4,23.7,0000.0,0004.68,0013.24,0004.01
2022-06-25 23:31:00,,0834.3,4.99,0.00,29.6,27.2,00.0,38.4,31.3,23.9,0000.0,0004.72,0013.19,0004.02
2022-06-25 23:32:00,,0834.4,4.99,0.00,29.6,27.3,00.0,38.4,31.3,23.9,0000.0,0004.75,0013.08,0004.04
2022-06-25 23:33:00,,0834.4,4.99,0.00,29.5,27.5,00.0,38.4,31.3,24.0,0000.0,0004.81,0014.49,0004.06
2022-06-25 23:34:00,,0834.4,5.00,0.00,29.5,27.6,00.0,38.4,31.3,24.0,0000.0,0004.84,0015.00,0004.09
2022-06-25 23:35:00,,0834.4,5.00,0.00,29.5,27.8,00.0,38.4,31.4,23.9,0000.0,0004.79,0014.06,0004.10
2022-06-25 23:36:00,,0834.4,5.00,0.00,29.5,28.0,00.0,38.4,31.4,23.9,0000.0,0004.86,0013.98,0004.11
2022-06-25 23:37:00,,0834.4,5.01,0.00,29.5,28.1,00.0,38.4,31.4,23.8,0000.0,0004.87,0013.75,0004.12
2022-06-25 23:38:00,,0834.4,5.00,0.00,29.6,28.3,00.0,38.4,31.5,23.8,0000.0,0004.88,0013.64,0004.13
2022-06-25 23:39:00,,0834.4,5.00,0.00,29.6,28.4,00.0,38.4,31.5,23.8,0000.0,0004.86,0015.23,0004.11
2022-06-25 23:40:00,,0834.4,5.00,0.00,29.6,28.5,00.0,38.4,31.6,23.7,0000.0,0004.86,0015.48,0004.09
2022-06-25 23:41:00,,0834.4,5.00,0.00,29.6,28.6,00.0,38.4,31.6,23.6,0000.0,0004.88,0014.75,0004.11
2022-06-25 23:42:00,,0834.4,5.02,0.00,29.7,28.7,00.0,38.4,31.7,23.7,0000.0,0004.83,0013.56,0004.10
2022-06-25 23:43:00,,0834.4,5.00,0.00,29.7,28.8,00.0,38.4,31.7,23.7,0000.0,0004.81,0013.53,0004.08
2022-06-25 23:44:00,,0834.5,4.99,0.00,29.7,28.9,00.0,38.5,31.8,23.5,0000.0,0004.77,0012.62,0004.07
2022-06-25 23:45:00,,0834.4,5.01,0.00,29.8,29.0,00.0,38.5,31.8,23.5,0000.0,0004.74,0012.35,0004.06
2022-06-25 23:46:00,,0834.5,5.01,0.00,29.8,29.0,00.0,38.5,31.8,23.7,0000.0,0004.72,0013.42,0004.03
2022-06-25 23:47:00,,0834.5,4.99,0.00,29.9,29.1,00.0,38.5,31.9,23.8,0000.0,0004.68,0016.32,0003.99
2022-06-25 23:48:00,,0834.4,5.00,0.00,29.9,29.2,00.0,38.6,31.9,23.5,0000.0,0004.64,0017.08,0003.95
2022-06-25 23:49:00,,0834.4,5.01,0.00,29.9,28.9,00.0,38.6,31.9,23.5,0000.0,0004.63,0017.45,0003.94
2022-06-25 23:50:00,,0834.5,5.00,0.00,29.8,27.9,00.0,38.5,31.6,23.5,0000.0,0004.63,0015.66,0003.93
2022-06-25 23:51:00,,0834.5,4.99,0.00,29.7,27.3,00.0,38.4,31.4,23.6,0000.0,0004.65,0014.93,0003.93
2022-06-25 23:52:00,,0834.5,4.99,0.00,29.7,27.2,00.0,38.4,31.3,23.7,0000.0,0004.67,0015.66,0003.93
2022-06-25 23:53:00,,0834.5,5.00,0.00,29.6,27.2,00.0,38.4,31.3,23.8,0000.0,0004.69,0016.66,0003.92
2022-06-25 23:54:00,,0834.6,5.02,0.00,29.5,27.4,00.0,38.4,31.3,23.9,0000.0,0004.69,0017.25,0003.94
2022-06-25 23:55:00,,0834.6,5.00,0.00,29.5,27.5,00.0,38.4,31.3,23.9,0000.0,0004.69,0017.75,0003.95
2022-06-25 23:56:00,,0834.6,5.01,0.00,29.5,27.7,00.0,38.4,31.3,24.0,0000.0,0004.73,0017.31,0003.96
2022-06-25 23:57:00,,0834.6,5.00,0.00,29.5,27.9,00.0,38.4,31.4,23.9,0000.0,0004.78,0017.66,0003.98
2022-06-25 23:58:00,,0834.6,4.99,0.00,29.5,28.1,00.0,38.4,31.4,24.0,0000.0,0004.80,0015.89,0004.00
2022-06-25 23:59:00,,0834.5,4.99,0.00,29.5,28.2,00.0,38.4,31.5,24.0,0000.0,0004.81,0015.40,0004.01
